contact:dominique.lefevre@mio.osupytheas.fr, maurice.libes@osupytheas.fr, didier.mallarino@osupytheas.fr
Project:EMSO http://www.emso-fr.org/EMSO-France
Depth: 2436.0 m
Title:EMSO Ligure Ouest : Data MII capteur OXYGEN
DateTime,Latitude,Longitude,Optode-Type,Optode_Serial,Oxygen,Saturation_Oxygen,Temperature
DateTime,Latitude,Longitude,Optode-Type,Optode_Serial,µmol.l-1,%,degC
2019-07-20T00:02:44,42.805,6.029,4330,1995,192.248,58.797,13.292
2019-07-20T00:05:44,42.805,6.029,4330,1995,192.150,58.767,13.292
2019-07-20T00:11:45,42.805,6.029,4330,1995,192.209,58.782,13.289
2019-07-20T00:14:45,42.805,6.029,4330,1995,192.230,58.793,13.293
2019-07-20T00:17:45,42.805,6.029,4330,1995,192.221,58.792,13.295
2019-07-20T00:20:45,42.805,6.029,4330,1995,192.120,58.761,13.294
2019-07-20T00:23:45,42.805,6.029,4330,1995,192.144,58.767,13.293
2019-07-20T00:26:45,42.805,6.029,4330,1995,192.068,58.745,13.294
2019-07-20T00:29:45,42.805,6.029,4330,1995,192.077,58.746,13.293
2019-07-20T00:32:45,42.805,6.029,4330,1995,192.146,58.767,13.293
2019-07-20T00:35:44,42.805,6.029,4330,1995,192.148,58.768,13.293
2019-07-20T00:38:44,42.805,6.029,4330,1995,192.267,58.803,13.292
2019-07-20T00:41:44,42.805,6.029,4330,1995,192.345,58.827,13.292
2019-07-20T00:44:44,42.805,6.029,4330,1995,192.327,58.822,13.292
2019-07-20T00:47:44,42.805,6.029,4330,1995,192.333,58.823,13.291
2019-07-20T00:50:44,42.805,6.029,4330,1995,192.276,58.805,13.291
2019-07-20T00:53:44,42.805,6.029,4330,1995,192.236,58.795,13.293
2019-07-20T00:56:44,42.805,6.029,4330,1995,192.274,58.804,13.291
2019-07-20T00:59:44,42.805,6.029,4330,1995,192.305,58.813,13.291
2019-07-20T01:02:44,42.805,6.029,4330,1995,192.330,58.821,13.291
2019-07-20T01:05:44,42.805,6.029,4330,1995,192.347,58.826,13.291
2019-07-20T01:08:44,42.805,6.029,4330,1995,192.349,58.826,13.290
2019-07-20T01:11:44,42.805,6.029,4330,1995,192.362,58.831,13.291
2019-07-20T01:14:44,42.805,6.029,4330,1995,192.309,58.814,13.290
2019-07-20T01:17:44,42.805,6.029,4330,1995,192.346,58.826,13.291
2019-07-20T01:20:44,42.805,6.029,4330,1995,192.306,58.813,13.290
2019-07-20T01:23:44,42.805,6.029,4330,1995,192.231,58.790,13.290
2019-07-20T01:26:44,42.805,6.029,4330,1995,192.289,58.809,13.291
2019-07-20T01:29:44,42.805,6.029,4330,1995,192.273,58.803,13.291
2019-07-20T01:32:44,42.805,6.029,4330,1995,192.247,58.795,13.290
2019-07-20T01:35:44,42.805,6.029,4330,1995,192.219,58.788,13.291
2019-07-20T01:38:44,42.805,6.029,4330,1995,192.333,58.823,13.292
2019-07-20T01:41:44,42.805,6.029,4330,1995,192.283,58.807,13.291
2019-07-20T01:44:44,42.805,6.029,4330,1995,192.364,58.832,13.291
2019-07-20T01:47:44,42.805,6.029,4330,1995,192.306,58.814,13.291
2019-07-20T01:50:44,42.805,6.029,4330,1995,192.338,58.824,13.291
2019-07-20T01:53:44,42.805,6.029,4330,1995,192.229,58.791,13.292
2019-07-20T01:56:44,42.805,6.029,4330,1995,192.278,58.807,13.293
2019-07-20T01:59:44,42.805,6.029,4330,1995,192.283,58.808,13.292
2019-07-20T02:02:44,42.805,6.029,4330,1995,192.248,58.797,13.292
2019-07-20T02:05:44,42.805,6.029,4330,1995,192.238,58.794,13.292
2019-07-20T02:08:44,42.805,6.029,4330,1995,192.262,58.802,13.292
2019-07-20T02:11:44,42.805,6.029,4330,1995,192.320,58.819,13.292
2019-07-20T02:14:44,42.805,6.029,4330,1995,192.388,58.840,13.292
2019-07-20T02:17:44,42.805,6.029,4330,1995,192.335,58.824,13.292
2019-07-20T02:20:44,42.805,6.029,4330,1995,192.359,58.832,13.293
2019-07-20T02:23:44,42.805,6.029,4330,1995,192.331,58.823,13.292
2019-07-20T02:26:44,42.805,6.029,4330,1995,192.307,58.816,13.293
2019-07-20T02:29:44,42.805,6.029,4330,1995,192.370,58.837,13.294
2019-07-20T02:32:44,42.805,6.029,4330,1995,192.376,58.838,13.293
2019-07-20T02:35:44,42.805,6.029,4330,1995,192.324,58.822,13.293
2019-07-20T02:38:44,42.805,6.029,4330,1995,192.283,58.812,13.295
2019-07-20T02:47:44,42.805,6.029,4330,1995,192.227,58.787,13.289
2019-07-20T02:50:44,42.805,6.029,4330,1995,192.178,58.776,13.292
2019-07-20T02:53:44,42.805,6.029,4330,1995,192.254,58.799,13.292
2019-07-20T02:56:44,42.805,6.029,4330,1995,192.261,58.802,13.292
2019-07-20T02:59:44,42.805,6.029,4330,1995,192.353,58.830,13.292
2019-07-20T03:02:44,42.805,6.029,4330,1995,192.295,58.812,13.292
2019-07-20T03:05:44,42.805,6.029,4330,1995,192.230,58.793,13.293
2019-07-20T03:08:44,42.805,6.029,4330,1995,192.190,58.780,13.293
2019-07-20T03:11:44,42.805,6.029,4330,1995,192.376,58.837,13.292
2019-07-20T03:14:44,42.805,6.029,4330,1995,192.243,58.796,13.293
2019-07-20T03:17:44,42.805,6.029,4330,1995,192.244,58.798,13.294
2019-07-20T03:20:44,42.805,6.029,4330,1995,192.267,58.804,13.293
2019-07-20T03:23:44,42.805,6.029,4330,1995,192.322,58.822,13.293
2019-07-20T03:26:44,42.805,6.029,4330,1995,192.268,58.806,13.294
2019-07-20T03:29:44,42.805,6.029,4330,1995,192.303,58.815,13.292
2019-07-20T03:32:44,42.805,6.029,4330,1995,192.357,58.833,13.294
2019-07-20T03:35:44,42.805,6.029,4330,1995,192.331,58.825,13.293
2019-07-20T03:38:44,42.805,6.029,4330,1995,192.343,58.828,13.293
2019-07-20T03:41:44,42.805,6.029,4330,1995,192.274,58.807,13.293
2019-07-20T03:44:44,42.805,6.029,4330,1995,192.372,58.837,13.293
2019-07-20T03:47:44,42.805,6.029,4330,1995,192.306,58.816,13.293
2019-07-20T03:50:44,42.805,6.029,4330,1995,192.380,58.839,13.293
2019-07-20T03:53:44,42.805,6.029,4330,1995,192.321,58.821,13.293
2019-07-20T03:56:44,42.805,6.029,4330,1995,192.358,58.832,13.293
2019-07-20T03:59:44,42.805,6.029,4330,1995,192.292,58.812,13.293
2019-07-20T04:02:44,42.805,6.029,4330,1995,192.296,58.813,13.293
2019-07-20T04:05:44,42.805,6.029,4330,1995,192.311,58.818,13.293
2019-07-20T04:08:44,42.805,6.029,4330,1995,192.295,58.812,13.292
2019-07-20T04:11:44,42.805,6.029,4330,1995,192.170,58.774,13.292
2019-07-20T04:14:44,42.805,6.029,4330,1995,192.247,58.798,13.292
2019-07-20T04:17:44,42.805,6.029,4330,1995,192.210,58.787,13.293
2019-07-20T04:20:44,42.805,6.029,4330,1995,192.198,58.781,13.291
2019-07-20T04:23:44,42.805,6.029,4330,1995,192.194,58.781,13.292
2019-07-20T04:26:44,42.805,6.029,4330,1995,192.145,58.766,13.292
2019-07-20T04:29:44,42.805,6.029,4330,1995,192.240,58.794,13.292
2019-07-20T04:32:44,42.805,6.029,4330,1995,192.218,58.786,13.290
2019-07-20T04:35:44,42.805,6.029,4330,1995,192.188,58.778,13.291
2019-07-20T04:38:44,42.805,6.029,4330,1995,192.208,58.783,13.291
2019-07-20T04:41:44,42.805,6.029,4330,1995,192.120,58.758,13.292
2019-07-20T04:44:44,42.805,6.029,4330,1995,192.087,58.747,13.291
2019-07-20T04:47:44,42.805,6.029,4330,1995,192.108,58.753,13.291
2019-07-20T04:50:44,42.805,6.029,4330,1995,192.194,58.780,13.291
2019-07-20T04:53:44,42.805,6.029,4330,1995,192.164,58.770,13.291
2019-07-20T04:56:44,42.805,6.029,4330,1995,192.241,58.794,13.291
2019-07-20T04:59:44,42.805,6.029,4330,1995,192.201,58.781,13.291
2019-07-20T05:02:44,42.805,6.029,4330,1995,192.269,58.803,13.291
2019-07-20T05:05:44,42.805,6.029,4330,1995,192.359,58.831,13.292
2019-07-20T05:08:44,42.805,6.029,4330,1995,192.274,58.806,13.292
2019-07-20T05:11:44,42.805,6.029,4330,1995,192.271,58.803,13.291
2019-07-20T05:14:44,42.805,6.029,4330,1995,192.174,58.774,13.292
2019-07-20T05:20:44,42.805,6.029,4330,1995,192.097,58.750,13.291
2019-07-20T05:23:44,42.805,6.029,4330,1995,192.209,58.783,13.290
2019-07-20T05:26:44,42.805,6.029,4330,1995,192.292,58.809,13.290
2019-07-20T05:29:44,42.805,6.029,4330,1995,192.319,58.819,13.292
2019-07-20T05:32:44,42.805,6.029,4330,1995,192.407,58.846,13.292
2019-07-20T05:35:44,42.805,6.029,4330,1995,192.232,58.793,13.292
2019-07-20T05:38:44,42.805,6.029,4330,1995,192.063,58.743,13.294
2019-07-20T05:41:44,42.805,6.029,4330,1995,192.061,58.740,13.292
2019-07-20T05:44:44,42.805,6.029,4330,1995,192.175,58.775,13.292
2019-07-20T05:47:44,42.805,6.029,4330,1995,192.301,58.813,13.291
2019-07-20T05:50:44,42.805,6.029,4330,1995,192.319,58.824,13.296
2019-07-20T05:53:44,42.805,6.029,4330,1995,192.341,58.826,13.292
2019-07-20T05:56:44,42.805,6.029,4330,1995,192.426,58.853,13.293
2019-07-20T05:59:44,42.805,6.029,4330,1995,192.404,58.845,13.292
2019-07-20T06:02:44,42.805,6.029,4330,1995,192.423,58.853,13.294
2019-07-20T06:05:44,42.805,6.029,4330,1995,192.386,58.839,13.292
2019-07-20T06:08:44,42.805,6.029,4330,1995,192.309,58.816,13.292
2019-07-20T06:11:44,42.805,6.029,4330,1995,192.270,58.807,13.294
2019-07-20T06:14:44,42.805,6.029,4330,1995,192.333,58.824,13.292
2019-07-20T06:17:44,42.805,6.029,4330,1995,192.405,58.845,13.292
2019-07-20T06:20:44,42.805,6.029,4330,1995,192.358,58.831,13.292
2019-07-20T06:23:44,42.805,6.029,4330,1995,192.378,58.841,13.295
2019-07-20T06:26:44,42.805,6.029,4330,1995,192.254,58.802,13.294
2019-07-20T06:29:44,42.805,6.029,4330,1995,192.267,58.806,13.294
2019-07-20T06:32:44,42.805,6.029,4330,1995,192.081,58.750,13.295
2019-07-20T06:35:44,42.805,6.029,4330,1995,192.091,58.753,13.295
2019-07-20T06:38:44,42.805,6.029,4330,1995,192.102,58.756,13.295
2019-07-20T06:41:44,42.805,6.029,4330,1995,192.116,58.764,13.297
2019-07-20T06:44:44,42.805,6.029,4330,1995,192.174,58.777,13.294
2019-07-20T06:47:44,42.805,6.029,4330,1995,192.425,58.853,13.293
2019-07-20T06:50:44,42.805,6.029,4330,1995,192.237,58.802,13.298
2019-07-20T06:53:44,42.805,6.029,4330,1995,192.243,58.801,13.296
2019-07-20T06:56:44,42.805,6.029,4330,1995,192.266,58.811,13.299
2019-07-20T06:59:44,42.805,6.029,4330,1995,192.369,58.840,13.296
2019-07-20T07:02:44,42.805,6.029,4330,1995,192.311,58.821,13.295
2019-07-20T07:05:44,42.805,6.029,4330,1995,192.123,58.765,13.296
2019-07-20T07:08:44,42.805,6.029,4330,1995,192.006,58.728,13.295
2019-07-20T07:11:44,42.805,6.029,4330,1995,191.966,58.718,13.297
2019-07-20T07:14:44,42.805,6.029,4330,1995,192.042,58.740,13.296
2019-07-20T07:17:44,42.805,6.029,4330,1995,192.250,58.802,13.295
2019-07-20T07:20:44,42.805,6.029,4330,1995,192.365,58.838,13.296
2019-07-20T07:23:44,42.805,6.029,4330,1995,192.203,58.788,13.295
2019-07-20T07:26:44,42.805,6.029,4330,1995,192.212,58.787,13.293
2019-07-20T07:29:44,42.805,6.029,4330,1995,192.378,58.840,13.294
2019-07-20T07:32:44,42.805,6.029,4330,1995,192.449,58.864,13.296
2019-07-20T07:35:44,42.805,6.029,4330,1995,192.216,58.795,13.297
2019-07-20T07:38:44,42.805,6.029,4330,1995,192.351,58.832,13.294
2019-07-20T07:41:44,42.805,6.029,4330,1995,192.373,58.838,13.294
2019-07-20T07:44:44,42.805,6.029,4330,1995,192.461,58.866,13.294
2019-07-20T07:47:44,42.805,6.029,4330,1995,192.451,58.861,13.293
2019-07-20T07:50:44,42.805,6.029,4330,1995,192.355,58.835,13.295
2019-07-20T07:56:44,42.805,6.029,4330,1995,192.579,58.896,13.290
2019-07-20T07:59:44,42.805,6.029,4330,1995,192.759,58.954,13.292
2019-07-20T08:02:44,42.805,6.029,4330,1995,192.547,58.891,13.293
2019-07-20T08:05:44,42.805,6.029,4330,1995,192.621,58.914,13.294
2019-07-20T08:08:44,42.805,6.029,4330,1995,192.649,58.925,13.296
2019-07-20T08:11:44,42.805,6.029,4330,1995,192.593,58.906,13.294
2019-07-20T08:14:44,42.805,6.029,4330,1995,192.682,58.931,13.293
2019-07-20T08:17:44,42.805,6.029,4330,1995,192.695,58.935,13.293
2019-07-20T08:20:44,42.805,6.029,4330,1995,192.615,58.913,13.295
2019-07-20T08:23:44,42.805,6.029,4330,1995,192.670,58.928,13.293
2019-07-20T08:26:44,42.805,6.029,4330,1995,192.641,58.924,13.297
2019-07-20T08:29:44,42.805,6.029,4330,1995,192.673,58.928,13.292
2019-07-20T08:32:44,42.805,6.029,4330,1995,192.656,58.923,13.293
2019-07-20T08:35:44,42.805,6.029,4330,1995,192.528,58.886,13.295
2019-07-20T08:38:44,42.805,6.029,4330,1995,192.509,58.880,13.294
2019-07-20T08:41:44,42.805,6.029,4330,1995,192.553,58.893,13.294
2019-07-20T08:44:44,42.805,6.029,4330,1995,192.533,58.887,13.294
2019-07-20T08:47:44,42.805,6.029,4330,1995,192.490,58.873,13.293
2019-07-20T08:50:44,42.805,6.029,4330,1995,192.512,58.878,13.292
2019-07-20T08:53:44,42.805,6.029,4330,1995,192.585,58.901,13.292
2019-07-20T08:56:44,42.805,6.029,4330,1995,192.513,58.880,13.293
2019-07-20T08:59:44,42.805,6.029,4330,1995,192.504,58.876,13.292
2019-07-20T09:02:44,42.805,6.029,4330,1995,192.628,58.913,13.291
2019-07-20T09:05:44,42.805,6.029,4330,1995,192.670,58.926,13.292
2019-07-20T09:08:44,42.805,6.029,4330,1995,192.555,58.892,13.292
2019-07-20T09:11:44,42.805,6.029,4330,1995,192.520,58.881,13.293
2019-07-20T09:14:44,42.805,6.029,4330,1995,192.638,58.917,13.292
2019-07-20T09:17:44,42.805,6.029,4330,1995,192.727,58.943,13.291
2019-07-20T09:20:44,42.805,6.029,4330,1995,192.690,58.933,13.293
2019-07-20T09:23:44,42.805,6.029,4330,1995,192.658,58.925,13.294
2019-07-20T09:26:44,42.805,6.029,4330,1995,192.644,58.921,13.294
2019-07-20T09:29:44,42.805,6.029,4330,1995,192.612,58.909,13.292
2019-07-20T09:32:44,42.805,6.029,4330,1995,192.553,58.893,13.294
2019-07-20T09:35:44,42.805,6.029,4330,1995,192.514,58.883,13.295
2019-07-20T09:38:44,42.805,6.029,4330,1995,192.454,58.864,13.294
2019-07-20T09:41:44,42.805,6.029,4330,1995,192.654,58.923,13.294
2019-07-20T09:44:44,42.805,6.029,4330,1995,192.515,58.880,13.293
2019-07-20T09:47:44,42.805,6.029,4330,1995,192.477,58.872,13.296
2019-07-20T09:50:44,42.805,6.029,4330,1995,192.409,58.847,13.292
2019-07-20T09:53:44,42.805,6.029,4330,1995,192.284,58.811,13.294
2019-07-20T09:56:44,42.805,6.029,4330,1995,192.323,58.823,13.294
2019-07-20T09:59:44,42.805,6.029,4330,1995,192.442,58.860,13.295
2019-07-20T10:02:44,42.805,6.029,4330,1995,192.454,58.859,13.291
2019-07-20T10:05:44,42.805,6.029,4330,1995,192.572,58.897,13.293
2019-07-20T10:08:44,42.805,6.029,4330,1995,192.469,58.867,13.293
2019-07-20T10:11:44,42.805,6.029,4330,1995,192.486,58.873,13.294
2019-07-20T10:14:44,42.805,6.029,4330,1995,192.282,58.811,13.295
2019-07-20T10:17:44,42.805,6.029,4330,1995,192.238,58.799,13.296
2019-07-20T10:20:44,42.805,6.029,4330,1995,192.329,58.826,13.295
2019-07-20T10:23:44,42.805,6.029,4330,1995,192.214,58.790,13.294
2019-07-20T10:32:44,42.805,6.029,4330,1995,192.311,58.813,13.289
2019-07-20T10:35:44,42.805,6.029,4330,1995,192.323,58.823,13.294
2019-07-20T10:38:44,42.805,6.029,4330,1995,192.527,58.885,13.294
2019-07-20T10:41:44,42.805,6.029,4330,1995,192.415,58.851,13.294
2019-07-20T10:44:44,42.805,6.029,4330,1995,192.282,58.810,13.293
2019-07-20T10:47:44,42.805,6.029,4330,1995,192.381,58.842,13.295
2019-07-20T10:50:44,42.805,6.029,4330,1995,192.295,58.816,13.295
2019-07-20T10:53:44,42.805,6.029,4330,1995,192.253,58.806,13.297
2019-07-20T10:56:44,42.805,6.029,4330,1995,192.063,58.747,13.297
2019-07-20T10:59:44,42.805,6.029,4330,1995,192.008,58.728,13.295
2019-07-20T11:02:44,42.805,6.029,4330,1995,192.037,58.738,13.296
2019-07-20T11:05:44,42.805,6.029,4330,1995,191.824,58.674,13.297
2019-07-20T11:08:44,42.805,6.029,4330,1995,192.070,58.746,13.294
2019-07-20T11:11:44,42.805,6.029,4330,1995,192.441,58.857,13.293
2019-07-20T11:14:44,42.805,6.029,4330,1995,192.363,58.840,13.298
2019-07-20T11:17:44,42.805,6.029,4330,1995,192.275,58.808,13.294
2019-07-20T11:20:44,42.805,6.029,4330,1995,192.053,58.741,13.294
2019-07-20T11:23:44,42.805,6.029,4330,1995,192.230,58.795,13.294
2019-07-20T11:26:44,42.805,6.029,4330,1995,192.424,58.854,13.294
2019-07-20T11:29:44,42.805,6.029,4330,1995,192.529,58.888,13.295
2019-07-20T11:32:44,42.805,6.029,4330,1995,192.442,58.861,13.296
2019-07-20T11:35:44,42.805,6.029,4330,1995,192.476,58.871,13.295
2019-07-20T11:38:44,42.805,6.029,4330,1995,192.369,58.836,13.293
2019-07-20T11:41:44,42.805,6.029,4330,1995,192.361,58.836,13.295
2019-07-20T11:44:44,42.805,6.029,4330,1995,192.335,58.829,13.296
2019-07-20T11:47:44,42.805,6.029,4330,1995,192.303,58.817,13.294
2019-07-20T11:50:44,42.805,6.029,4330,1995,192.368,58.837,13.294
2019-07-20T11:53:44,42.805,6.029,4330,1995,192.388,58.842,13.293
2019-07-20T11:56:44,42.805,6.029,4330,1995,192.444,58.858,13.293
2019-07-20T11:59:44,42.805,6.029,4330,1995,192.386,58.843,13.295
2019-07-20T12:02:44,42.805,6.029,4330,1995,192.392,58.843,13.293
2019-07-20T12:05:44,42.805,6.029,4330,1995,192.421,58.851,13.293
2019-07-20T12:08:44,42.805,6.029,4330,1995,192.325,58.823,13.294
2019-07-20T12:11:44,42.805,6.029,4330,1995,192.361,58.831,13.291
2019-07-20T12:14:44,42.805,6.029,4330,1995,192.421,58.851,13.292
2019-07-20T12:17:44,42.805,6.029,4330,1995,192.576,58.897,13.292
2019-07-20T12:20:44,42.805,6.029,4330,1995,192.501,58.874,13.292
2019-07-20T12:23:44,42.805,6.029,4330,1995,192.471,58.865,13.292
2019-07-20T12:26:44,42.805,6.029,4330,1995,192.376,58.838,13.293
2019-07-20T12:29:44,42.805,6.029,4330,1995,192.244,58.799,13.294
2019-07-20T12:32:44,42.805,6.029,4330,1995,192.335,58.825,13.293
2019-07-20T12:35:44,42.805,6.029,4330,1995,192.431,58.855,13.293
2019-07-20T12:38:44,42.805,6.029,4330,1995,192.357,58.833,13.294
2019-07-20T12:41:44,42.805,6.029,4330,1995,192.417,58.850,13.293
2019-07-20T12:44:44,42.805,6.029,4330,1995,192.422,58.851,13.293
2019-07-20T12:47:44,42.805,6.029,4330,1995,192.369,58.835,13.293
2019-07-20T12:50:44,42.805,6.029,4330,1995,192.226,58.794,13.295
2019-07-20T12:53:44,42.805,6.029,4330,1995,192.003,58.726,13.295
2019-07-20T12:56:44,42.805,6.029,4330,1995,191.961,58.713,13.294
2019-07-20T12:59:44,42.805,6.029,4330,1995,191.916,58.699,13.294
2019-07-20T13:05:44,42.805,6.029,4330,1995,191.856,58.675,13.290
2019-07-20T13:08:44,42.805,6.029,4330,1995,191.865,58.679,13.291
2019-07-20T13:11:44,42.805,6.029,4330,1995,191.989,58.720,13.293
2019-07-20T13:14:44,42.805,6.029,4330,1995,191.911,58.693,13.291
2019-07-20T13:17:44,42.805,6.029,4330,1995,192.011,58.727,13.294
2019-07-20T13:20:44,42.805,6.029,4330,1995,191.920,58.700,13.294
2019-07-20T13:23:44,42.805,6.029,4330,1995,191.938,58.703,13.293
2019-07-20T13:26:44,42.805,6.029,4330,1995,191.927,58.703,13.295
2019-07-20T13:29:44,42.805,6.029,4330,1995,191.944,58.709,13.296
2019-07-20T13:32:44,42.805,6.029,4330,1995,191.764,58.652,13.294
2019-07-20T13:35:44,42.805,6.029,4330,1995,191.910,58.698,13.295
2019-07-20T13:38:44,42.805,6.029,4330,1995,191.822,58.669,13.294
2019-07-20T13:41:44,42.805,6.029,4330,1995,191.828,58.671,13.293
2019-07-20T13:44:44,42.805,6.029,4330,1995,191.825,58.670,13.294
2019-07-20T13:47:44,42.805,6.029,4330,1995,192.007,58.729,13.296
2019-07-20T13:50:44,42.805,6.029,4330,1995,192.090,58.754,13.296
2019-07-20T13:53:44,42.805,6.029,4330,1995,191.972,58.714,13.293
2019-07-20T13:56:44,42.805,6.029,4330,1995,191.884,58.689,13.294
2019-07-20T13:59:44,42.805,6.029,4330,1995,191.970,58.716,13.295
2019-07-20T14:02:44,42.805,6.029,4330,1995,191.947,58.710,13.296
2019-07-20T14:05:44,42.805,6.029,4330,1995,191.906,58.695,13.294
2019-07-20T14:08:44,42.805,6.029,4330,1995,191.877,58.689,13.296
2019-07-20T14:11:44,42.805,6.029,4330,1995,191.790,58.661,13.295
2019-07-20T14:14:44,42.805,6.029,4330,1995,191.729,58.645,13.297
2019-07-20T14:17:44,42.805,6.029,4330,1995,191.775,58.658,13.296
2019-07-20T14:20:44,42.805,6.029,4330,1995,191.790,58.665,13.298
2019-07-20T14:23:44,42.805,6.029,4330,1995,191.658,58.624,13.297
2019-07-20T14:26:44,42.805,6.029,4330,1995,191.708,58.638,13.297
2019-07-20T14:29:44,42.805,6.029,4330,1995,191.707,58.637,13.296
2019-07-20T14:32:44,42.805,6.029,4330,1995,191.670,58.625,13.296
2019-07-20T14:35:44,42.805,6.029,4330,1995,191.619,58.614,13.298
2019-07-20T14:38:44,42.805,6.029,4330,1995,191.769,58.655,13.295
2019-07-20T14:41:44,42.805,6.029,4330,1995,191.568,58.595,13.296
2019-07-20T14:44:44,42.805,6.029,4330,1995,191.563,58.594,13.296
2019-07-20T14:47:44,42.805,6.029,4330,1995,191.561,58.593,13.296
2019-07-20T14:50:44,42.805,6.029,4330,1995,191.593,58.604,13.298
2019-07-20T14:53:44,42.805,6.029,4330,1995,191.506,58.575,13.296
2019-07-20T14:56:44,42.805,6.029,4330,1995,191.428,58.551,13.296
2019-07-20T14:59:44,42.805,6.029,4330,1995,191.561,58.596,13.298
2019-07-20T15:02:44,42.805,6.029,4330,1995,191.825,58.675,13.297
2019-07-20T15:05:44,42.805,6.029,4330,1995,191.948,58.714,13.299
2019-07-20T15:08:44,42.805,6.029,4330,1995,191.867,58.689,13.298
2019-07-20T15:11:44,42.805,6.029,4330,1995,191.839,58.681,13.299
2019-07-20T15:14:44,42.805,6.029,4330,1995,191.911,58.698,13.295
2019-07-20T15:17:44,42.805,6.029,4330,1995,191.948,58.713,13.298
2019-07-20T15:20:44,42.805,6.029,4330,1995,191.928,58.706,13.297
2019-07-20T15:23:44,42.805,6.029,4330,1995,191.835,58.675,13.295
2019-07-20T15:26:44,42.805,6.029,4330,1995,191.930,58.707,13.298
2019-07-20T15:29:44,42.805,6.029,4330,1995,191.941,58.708,13.296
2019-07-20T15:32:44,42.805,6.029,4330,1995,191.859,58.684,13.296
2019-07-20T15:35:44,42.805,6.029,4330,1995,191.914,58.698,13.294
2019-07-20T15:41:44,42.805,6.029,4330,1995,191.980,58.714,13.291
2019-07-20T15:44:44,42.805,6.029,4330,1995,192.053,58.745,13.298
2019-07-20T15:47:44,42.805,6.029,4330,1995,191.978,58.724,13.299
2019-07-20T15:50:44,42.805,6.029,4330,1995,191.929,58.707,13.297
2019-07-20T15:53:44,42.805,6.029,4330,1995,191.739,58.650,13.299
2019-07-20T15:56:44,42.805,6.029,4330,1995,191.647,58.618,13.295
2019-07-20T15:59:44,42.805,6.029,4330,1995,191.804,58.665,13.295
2019-07-20T16:02:44,42.805,6.029,4330,1995,191.986,58.722,13.296
2019-07-20T16:05:44,42.805,6.029,4330,1995,191.835,58.680,13.299
2019-07-20T16:08:44,42.805,6.029,4330,1995,191.709,58.639,13.297
2019-07-20T16:11:44,42.805,6.029,4330,1995,191.551,58.592,13.298
2019-07-20T16:14:44,42.805,6.029,4330,1995,191.604,58.606,13.296
2019-07-20T16:17:44,42.805,6.029,4330,1995,191.573,58.593,13.294
2019-07-20T16:20:44,42.805,6.029,4330,1995,191.471,58.564,13.295
2019-07-20T16:23:44,42.805,6.029,4330,1995,191.524,58.580,13.295
2019-07-20T16:26:44,42.805,6.029,4330,1995,191.553,58.591,13.297
2019-07-20T16:29:44,42.805,6.029,4330,1995,191.580,58.598,13.296
2019-07-20T16:32:44,42.805,6.029,4330,1995,191.495,58.569,13.294
2019-07-20T16:35:44,42.805,6.029,4330,1995,191.944,58.707,13.294
2019-07-20T16:38:44,42.805,6.029,4330,1995,191.850,58.682,13.297
2019-07-20T16:41:44,42.805,6.029,4330,1995,191.852,58.682,13.297
2019-07-20T16:44:44,42.805,6.029,4330,1995,191.765,58.655,13.296
2019-07-20T16:47:44,42.805,6.029,4330,1995,191.758,58.655,13.298
2019-07-20T16:50:44,42.805,6.029,4330,1995,191.761,58.651,13.294
2019-07-20T16:53:44,42.805,6.029,4330,1995,191.678,58.627,13.295
2019-07-20T16:56:44,42.805,6.029,4330,1995,191.748,58.656,13.301
2019-07-20T16:59:44,42.805,6.029,4330,1995,191.610,58.608,13.297
2019-07-20T17:02:44,42.805,6.029,4330,1995,191.642,58.620,13.298
2019-07-20T17:05:44,42.805,6.029,4330,1995,191.537,58.590,13.300
2019-07-20T17:08:44,42.805,6.029,4330,1995,191.544,58.586,13.295
2019-07-20T17:11:44,42.805,6.029,4330,1995,191.571,58.593,13.294
2019-07-20T17:14:44,42.805,6.029,4330,1995,191.594,58.601,13.295
2019-07-20T17:17:44,42.805,6.029,4330,1995,191.603,58.604,13.295
2019-07-20T17:20:44,42.805,6.029,4330,1995,191.550,58.589,13.296
2019-07-20T17:23:44,42.805,6.029,4330,1995,191.552,58.586,13.293
2019-07-20T17:26:44,42.805,6.029,4330,1995,191.629,58.612,13.295
2019-07-20T17:29:44,42.805,6.029,4330,1995,191.488,58.569,13.295
2019-07-20T17:32:44,42.805,6.029,4330,1995,191.564,58.592,13.295
2019-07-20T17:35:44,42.805,6.029,4330,1995,191.647,58.618,13.295
2019-07-20T17:38:44,42.805,6.029,4330,1995,191.643,58.617,13.296
2019-07-20T17:41:44,42.805,6.029,4330,1995,191.648,58.618,13.295
2019-07-20T17:44:44,42.805,6.029,4330,1995,191.573,58.599,13.298
2019-07-20T17:47:44,42.805,6.029,4330,1995,191.407,58.549,13.299
2019-07-20T17:50:44,42.805,6.029,4330,1995,191.388,58.540,13.296
2019-07-20T17:53:44,42.805,6.029,4330,1995,191.367,58.541,13.302
2019-07-20T17:56:44,42.805,6.029,4330,1995,191.330,58.525,13.299
2019-07-20T17:59:44,42.805,6.029,4330,1995,191.293,58.512,13.298
2019-07-20T18:02:44,42.805,6.029,4330,1995,191.344,58.529,13.298
2019-07-20T18:05:44,42.805,6.029,4330,1995,191.581,58.598,13.296
2019-07-20T18:08:44,42.805,6.029,4330,1995,191.827,58.674,13.297
2019-07-20T18:17:44,42.805,6.029,4330,1995,191.730,58.638,13.292
2019-07-20T18:20:44,42.805,6.029,4330,1995,191.693,58.633,13.296
2019-07-20T18:23:44,42.805,6.029,4330,1995,191.716,58.638,13.294
2019-07-20T18:26:44,42.805,6.029,4330,1995,191.691,58.634,13.297
2019-07-20T18:29:44,42.805,6.029,4330,1995,191.751,58.650,13.295
2019-07-20T18:32:44,42.805,6.029,4330,1995,191.685,58.633,13.298
2019-07-20T18:35:44,42.805,6.029,4330,1995,191.683,58.632,13.297
2019-07-20T18:38:44,42.805,6.029,4330,1995,191.562,58.595,13.298
2019-07-20T18:41:44,42.805,6.029,4330,1995,191.515,58.580,13.297